| time (UTC) | temp F | wind direction | speed MPH | gust MPH | rain 1hr in | rain 24hr in | rain mn in | humidity % | barometer mb |
| 20260510043036 | 56 | 334 | 1.0 | 3.0 | 0.00 | 0.00 | 0.00 | 48 | 1018.4 |
| 20260510041535 | 57 | 333 | 1.0 | 3.0 | 0.00 | 0.00 | 0.00 | 47 | 1018.2 |
| 20260510040042 | 57 | 0 | 0.0 | 3.0 | 0.00 | 0.00 | 0.00 | 46 | 1018.2 |
| 20260510034541 | 58 | 333 | 0.0 | 3.0 | 0.00 | 0.00 | 0.00 | 44 | 1017.9 |
| 20260510033043 | 59 | 332 | 1.0 | 3.0 | 0.00 | 0.00 | 0.00 | 44 | 1017.8 |
| 20260510031549 | 60 | 332 | 2.0 | 4.0 | 0.00 | 0.00 | 0.00 | 43 | 1017.7 |
| 20260510030036 | 60 | 333 | 2.0 | 5.0 | 0.00 | 0.00 | 0.00 | 42 | 1017.6 |
| 20260510024545 | 62 | 333 | 2.0 | 9.0 | 0.00 | 0.00 | 0.00 | 41 | 1017.5 |
| 20260510023035 | 63 | 325 | 1.0 | 4.0 | 0.00 | 0.00 | 0.00 | 40 | 1017.4 |
| 20260510021536 | 63 | 325 | 3.0 | 6.0 | 0.00 | 0.00 | 0.00 | 39 | 1017.2 |
| 20260510020035 | 64 | 318 | 4.0 | 6.0 | 0.00 | 0.00 | 0.00 | 38 | 1017.3 |
| 20260510014543 | 66 | 303 | 7.0 | 13.0 | 0.00 | 0.00 | 0.00 | 36 | 1017.1 |
| 20260510013038 | 66 | 309 | 5.0 | 12.0 | 0.00 | 0.00 | 0.00 | 36 | 1017.1 |
| 20260510011547 | 66 | 327 | 8.0 | 13.0 | 0.00 | 0.00 | 0.00 | 35 | 1017.1 |
| 20260510010036 | 66 | 288 | 7.0 | 13.0 | 0.00 | 0.00 | 0.00 | 36 | 1017.1 |
| 20260510004535 | 65 | 321 | 8.0 | 10.0 | 0.00 | 0.00 | 0.00 | 37 | 1017.2 |
| 20260510003059 | 66 | 315 | 9.0 | 15.0 | 0.00 | 0.00 | 0.00 | 36 | 1017.2 |
| 20260510001540 | 66 | 307 | 8.0 | 12.0 | 0.00 | 0.00 | 0.00 | 38 | 1017.2 |
| 20260510000040 | 66 | 309 | 12.0 | 16.0 | 0.00 | 0.00 | 0.00 | 37 | 1017.1 |
| 20260509234543 | 66 | 290 | 6.0 | 14.0 | 0.00 | 0.00 | 0.00 | 38 | 1017.2 |
| 20260509233042 | 65 | 275 | 7.0 | 10.0 | 0.00 | 0.00 | 0.00 | 38 | 1017.2 |
| 20260509231547 | 65 | 238 | 7.0 | 14.0 | 0.00 | 0.00 | 0.00 | 38 | 1017.1 |
| 20260509230053 | 65 | 307 | 4.0 | 13.0 | 0.00 | 0.00 | 0.00 | 38 | 1017.3 |
| 20260509224543 | 65 | 285 | 10.0 | 14.0 | 0.00 | 0.00 | 0.00 | 38 | 1017.3 |
| 20260509223036 | 65 | 302 | 8.0 | 13.0 | 0.00 | 0.00 | 0.00 | 39 | 1017.3 |
| 20260509221543 | 64 | 293 | 2.0 | 11.0 | 0.00 | 0.00 | 0.00 | 40 | 1017.4 |
| 20260509220043 | 64 | 284 | 6.0 | 12.0 | 0.00 | 0.00 | 0.00 | 40 | 1017.5 |
| 20260509214542 | 64 | 287 | 8.0 | 12.0 | 0.00 | 0.00 | 0.00 | 40 | 1017.6 |
| 20260509213055 | 65 | 0 | 5.0 | 17.0 | 0.00 | 0.00 | 0.00 | 39 | 1017.6 |
| 20260509211540 | 64 | 202 | 3.0 | 14.0 | 0.00 | 0.00 | 0.00 | 41 | 1017.8 |
| 20260509210050 | 63 | 267 | 4.0 | 11.0 | 0.00 | 0.00 | 0.00 | 42 | 1017.8 |
| 20260509204543 | 63 | 244 | 4.0 | 10.0 | 0.00 | 0.00 | 0.00 | 42 | 1017.9 |
| 20260509203041 | 64 | 218 | 7.0 | 12.0 | 0.00 | 0.00 | 0.00 | 41 | 1017.9 |
| 20260509201540 | 65 | 265 | 4.0 | 12.0 | 0.00 | 0.00 | 0.00 | 40 | 1017.9 |
| 20260509200036 | 64 | 171 | 7.0 | 12.0 | 0.00 | 0.00 | 0.00 | 43 | 1018.0 |
| 20260509194537 | 64 | 143 | 4.0 | 15.0 | 0.00 | 0.00 | 0.00 | 42 | 1017.9 |
| 20260509193043 | 65 | 198 | 4.0 | 16.0 | 0.00 | 0.00 | 0.00 | 43 | 1018.0 |
| 20260509191542 | 62 | 0 | 5.0 | 12.0 | 0.00 | 0.00 | 0.00 | 45 | 1018.0 |
| 20260509190042 | 60 | 143 | 5.0 | 10.0 | 0.00 | 0.00 | 0.00 | 47 | 1018.0 |
| 20260509184537 | 59 | 140 | 4.0 | 10.0 | 0.00 | 0.00 | 0.00 | 48 | 1018.1 |
| 20260509183042 | 59 | 147 | 4.0 | 10.0 | 0.00 | 0.00 | 0.00 | 50 | 1018.1 |
| 20260509181544 | 58 | 195 | 2.0 | 5.0 | 0.00 | 0.00 | 0.00 | 51 | 1018.2 |
| 20260509180043 | 58 | 198 | 2.0 | 6.0 | 0.00 | 0.00 | 0.00 | 52 | 1018.3 |
| 20260509174541 | 57 | 0 | 0.0 | 3.0 | 0.00 | 0.00 | 0.00 | 52 | 1018.2 |
| 20260509173035 | 56 | 29 | 1.0 | 3.0 | 0.00 | 0.00 | 0.00 | 54 | 1018.1 |
| 20260509171535 | 56 | 25 | 0.0 | 4.0 | 0.00 | 0.00 | 0.00 | 55 | 1018.0 |
| 20260509170043 | 56 | 25 | 2.0 | 4.0 | 0.00 | 0.00 | 0.00 | 56 | 1017.9 |
| 20260509164542 | 55 | 26 | 2.0 | 4.0 | 0.00 | 0.00 | 0.00 | 57 | 1017.9 |
| 20260509163041 | 55 | 28 | 1.0 | 3.0 | 0.00 | 0.00 | 0.00 | 58 | 1017.9 |
| 20260509161544 | 55 | 28 | 0.0 | 4.0 | 0.00 | 0.00 | 0.00 | 59 | 1017.7 |
| 20260509160045 | 55 | 28 | 3.0 | 4.0 | 0.00 | 0.00 | 0.00 | 58 | 1017.6 |
| 20260509154551 | 55 | 29 | 2.0 | 3.0 | 0.00 | 0.00 | 0.00 | 58 | 1017.5 |
| 20260509153042 | 55 | 29 | 1.0 | 3.0 | 0.00 | 0.00 | 0.00 | 58 | 1017.4 |
| 20260509151543 | 55 | 0 | 2.0 | 3.0 | 0.00 | 0.00 | 0.00 | 58 | 1017.2 |
| 20260509150037 | 55 | 121 | 1.0 | 4.0 | 0.00 | 0.00 | 0.00 | 58 | 1017.2 |
| 20260509144545 | 55 | 0 | 0.0 | 2.0 | 0.00 | 0.00 | 0.00 | 57 | 1017.1 |
| 20260509143044 | 55 | 0 | 0.0 | 1.0 | 0.00 | 0.00 | 0.00 | 58 | 1016.9 |
| 20260509141542 | 54 | 0 | 0.0 | 2.0 | 0.00 | 0.00 | 0.00 | 58 | 1016.7 |
| 20260509140046 | 54 | 113 | 1.0 | 3.0 | 0.00 | 0.00 | 0.00 | 59 | 1016.6 |
| 20260509134537 | 53 | 0 | 0.0 | 0.0 | 0.00 | 0.00 | 0.00 | 61 | 1016.4 |
| 20260509133037 | 52 | 0 | 0.0 | 0.0 | 0.00 | 0.00 | 0.00 | 62 | 1016.3 |
| 20260509131535 | 51 | 0 | 0.0 | 1.0 | 0.00 | 0.00 | 0.00 | 62 | 1016.1 |
| 20260509130042 | 50 | 0 | 0.0 | 1.0 | 0.00 | 0.00 | 0.00 | 63 | 1015.8 |
| 20260509124541 | 50 | 113 | 1.0 | 4.0 | 0.00 | 0.00 | 0.00 | 64 | 1015.8 |
| 20260509123037 | 49 | 112 | 1.0 | 3.0 | 0.00 | 0.00 | 0.00 | 64 | 1015.6 |
| 20260509121538 | 49 | 112 | 1.0 | 6.0 | 0.00 | 0.00 | 0.00 | 63 | 1015.5 |
| 20260509120042 | 49 | 0 | 1.0 | 3.0 | 0.00 | 0.00 | 0.00 | 63 | 1015.4 |
| 20260509114542 | 50 | 26 | 1.0 | 3.0 | 0.00 | 0.00 | 0.00 | 62 | 1015.2 |
| 20260509113041 | 51 | 20 | 3.0 | 9.0 | 0.00 | 0.00 | 0.00 | 62 | 1015.1 |
| 20260509111539 | 51 | 344 | 8.0 | 11.0 | 0.00 | 0.00 | 0.00 | 62 | 1014.9 |
| 20260509110038 | 51 | 346 | 7.0 | 10.0 | 0.00 | 0.00 | 0.00 | 62 | 1014.9 |
| 20260509104541 | 51 | 350 | 6.0 | 9.0 | 0.00 | 0.00 | 0.00 | 63 | 1014.9 |
| 20260509103036 | 51 | 18 | 5.0 | 8.0 | 0.00 | 0.00 | 0.00 | 62 | 1014.9 |
| 20260509101548 | 51 | 29 | 4.0 | 6.0 | 0.00 | 0.00 | 0.00 | 61 | 1014.7 |
| 20260509100039 | 53 | 5 | 6.0 | 11.0 | 0.00 | 0.00 | 0.00 | 60 | 1014.4 |
| 20260509094540 | 53 | 336 | 6.0 | 11.0 | 0.00 | 0.00 | 0.00 | 59 | 1014.2 |
| 20260509093051 | 53 | 352 | 10.0 | 15.0 | 0.00 | 0.00 | 0.00 | 59 | 1014.2 |
| 20260509091537 | 53 | 331 | 10.0 | 13.0 | 0.00 | 0.00 | 0.00 | 59 | 1014.0 |
| 20260509090034 | 53 | 336 | 10.0 | 15.0 | 0.00 | 0.00 | 0.00 | 58 | 1013.9 |
| 20260509084550 | 54 | 333 | 11.0 | 20.0 | 0.00 | 0.00 | 0.00 | 58 | 1013.7 |
| 20260509083038 | 55 | 321 | 12.0 | 21.0 | 0.00 | 0.00 | 0.00 | 57 | 1013.6 |
| 20260509081541 | 55 | 316 | 15.0 | 19.0 | 0.00 | 0.00 | 0.00 | 56 | 1013.3 |
| 20260509080048 | 55 | 323 | 14.0 | 20.0 | 0.00 | 0.00 | 0.00 | 55 | 1013.4 |
| 20260509074537 | 55 | 315 | 15.0 | 19.0 | 0.00 | 0.00 | 0.00 | 54 | 1013.2 |
| 20260509073041 | 56 | 320 | 13.0 | 20.0 | 0.00 | 0.00 | 0.00 | 53 | 1013.1 |
| 20260509071539 | 56 | 306 | 14.0 | 20.0 | 0.00 | 0.00 | 0.00 | 52 | 1012.8 |
| 20260509070042 | 56 | 321 | 13.0 | 20.0 | 0.00 | 0.00 | 0.00 | 50 | 1012.7 |
| 20260509064535 | 56 | 310 | 9.0 | 19.0 | 0.00 | 0.00 | 0.00 | 52 | 1012.6 |
| 20260509063042 | 56 | 304 | 13.0 | 19.0 | 0.00 | 0.00 | 0.00 | 52 | 1012.4 |
| 20260509061540 | 57 | 315 | 12.0 | 19.0 | 0.00 | 0.00 | 0.00 | 53 | 1012.4 |
| 20260509060038 | 57 | 309 | 12.0 | 18.0 | 0.00 | 0.00 | 0.00 | 55 | 1012.2 |
| 20260509054539 | 57 | 300 | 12.0 | 19.0 | 0.00 | 0.00 | 0.00 | 53 | 1012.1 |
| 20260509053039 | 57 | 306 | 13.0 | 21.0 | 0.00 | 0.00 | 0.00 | 53 | 1012.1 |
| 20260509051539 | 58 | 288 | 17.0 | 24.0 | 0.00 | 0.00 | 0.00 | 52 | 1012.0 |
| 20260509050046 | 59 | 281 | 12.0 | 19.0 | 0.00 | 0.00 | 0.00 | 49 | 1011.9 |
| 20260509044539 | 59 | 287 | 13.0 | 19.0 | 0.00 | 0.00 | 0.00 | 47 | 1011.8 |